Location: Dürabuch
(48.2640°N, 11.2185°E)
Time: 04:01:57
(UTC+00:00)

Cosmos 1833 Rocket - Pass Details

Date: 23 May 2024
Orbit: 832 x 839 km, 71.0° (Epoch: 13 June)

Event Time Altitude Azimuth Distance (km) Brightness Sun altitude
Exits shadow 00:08:17 18° 250° (WSW) 1,933 4.3 -20.0°
Maximum altitude 00:11:54 37° 309° (NW) 1,272 3.8 -19.8°
Drops below altitude 10° 00:17:06 10° 16° (NNE) 2,454 6.4 -19.6°
Sets 00:19:44 0° 25° (NNE) 3,393 7.4 -19.4°
